AL7BX-WX Weather Reports


time (UTC)temp
C
wind
direction
speed
KPH
gust
KPH
rain 1hr
cm
rain 24hr
cm
rain mn
cm
humidity
%
barometer
mb
20260510130903 5 298 1.6 4.8 0.00 0.00 0.00 44
20260510130003 5 298 0.0 3.2 0.00 0.00 0.00 46
20260510125403 5 0 0.0 0.0 0.00 0.00 0.00 46
20260510124713 5 0 0.0 0.0 0.00 0.00 0.00 45
20260510123603 5 0 0.0 0.0 0.00 0.00 0.00 44
20260510122703 6 0 0.0 0.0 0.00 0.00 0.00 42
20260510122013 6 298 1.6 3.2 0.00 0.00 0.00 41
20260510120903 5 298 1.6 3.2 0.00 0.00 0.00 42
20260510120004 5 298 0.0 3.2 0.00 0.00 0.00 41
20260510115403 6 0 0.0 0.0 0.00 0.00 0.00 38
20260510114713 6 298 0.0 3.2 0.00 0.00 0.00 39
20260510113603 5 0 0.0 0.0 0.00 0.00 0.00 38
20260510112703 5 0 0.0 0.0 0.00 0.00 0.00 37
20260510111803 5 0 0.0 0.0 0.00 0.00 0.00 38
20260510110903 4 0 0.0 0.0 0.00 0.00 0.00 38
20260510110004 5 298 0.0 1.6 0.00 0.00 0.00 42
20260510105613 5 298 0.0 1.6 0.00 0.00 0.00 38
20260510104503 5 298 1.6 4.8 0.00 0.00 0.00 39
20260510103603 5 299 1.6 4.8 0.00 0.00 0.00 38
20260510102703 5 299 1.6 4.8 0.00 0.00 0.00 40
20260510101803 5 299 1.6 4.8 0.00 0.00 0.00 41
20260510100903 5 299 1.6 4.8 0.00 0.00 0.00 40
20260510100003 5 299 0.0 3.2 0.00 0.00 0.00 40
20260510095403 5 299 0.0 3.2 0.00 0.00 0.00 40
20260510094503 6 299 1.6 4.8 0.00 0.00 0.00 40
20260510093603 6 299 0.0 1.6 0.00 0.00 0.00 42
20260510092703 6 309 1.6 6.4 0.00 0.00 0.00 40
20260510091803 6 0 0.0 0.0 0.00 0.00 0.00 38
20260510090903 7 331 0.0 3.2 0.00 0.00 0.00 39
20260510090004 7 331 0.0 3.2 0.00 0.00 0.00 41
20260510085403 8 331 0.0 3.2 0.00 0.00 0.00 35
20260510084503 8 331 1.6 4.8 0.00 0.00 0.00 34
20260510083603 8 331 1.6 4.8 0.00 0.00 0.00 34
20260510082703 8 332 0.0 3.2 0.00 0.00 0.00 34
20260510081803 9 332 0.0 3.2 0.00 0.00 0.00 31
20260510080903 9 334 4.8 8.0 0.00 0.00 0.00 30
20260510080003 8 339 3.2 8.0 0.00 0.00 0.00 32
20260510075403 9 323 1.6 8.0 0.00 0.00 0.00 34
20260510074503 10 323 1.6 4.8 0.00 0.00 0.00 33
20260510073603 10 322 3.2 6.4 0.00 0.00 0.00 32
20260510072914 10 323 4.8 9.7 0.00 0.00 0.00 35
20260510071803 10 328 6.4 11.3 0.00 0.00 0.00 35
20260510070903 10 330 3.2 6.4 0.00 0.00 0.00 34
20260510070214 10 330 1.6 6.4 0.00 0.00 0.00 34
20260510065614 10 327 4.8 11.3 0.00 0.00 0.00 36
20260510064503 8 301 4.8 8.0 0.00 0.00 0.00 37
20260510063603 9 294 1.6 6.4 0.00 0.00 0.00 41
20260510062914 10 299 1.6 8.0 0.00 0.00 0.00 43
20260510061803 11 0 0.0 0.0 0.00 0.00 0.00 35
20260510060903 11 342 1.6 4.8 0.00 0.00 0.00 33
20260510060006 12 341 1.6 6.4 0.00 0.00 0.00 33
20260510055613 12 339 3.2 8.0 0.00 0.00 0.00 32
20260510054503 12 336 4.8 8.0 0.00 0.00 0.00 34
20260510053603 11 345 3.2 8.0 0.00 0.00 0.00 33
20260510052703 11 346 0.0 4.8 0.00 0.00 0.00 34
20260510051803 12 346 0.0 3.2 0.00 0.00 0.00 33
20260510050903 13 346 1.6 3.2 0.00 0.00 0.00 32
20260510050213 13 347 1.6 6.4 0.00 0.00 0.00 31
20260510045403 13 342 4.8 9.7 0.00 0.00 0.00 31
20260510044503 13 326 6.4 11.3 0.00 0.00 0.00 32
20260510043603 13 323 3.2 8.0 0.00 0.00 0.00 32
20260510042703 14 353 3.2 6.4 0.00 0.00 0.00 32
20260510042012 14 360 4.8 9.7 0.00 0.00 0.00 32
20260510040903 14 360 0.0 1.6 0.00 0.00 0.00 30
20260510040003 15 360 0.0 1.6 0.00 0.00 0.00 28
20260510035403 15 0 0.0 0.0 0.00 0.00 0.00 28
20260510034503 16 360 0.0 4.8 0.00 0.00 0.00 28
20260510033604 16 360 0.0 3.2 0.00 0.00 0.00 27
20260510032703 17 360 1.6 9.7 0.00 0.00 0.00 26
20260510031803 17 360 1.6 3.2 0.00 0.00 0.00 25
20260510030903 18 360 1.6 8.0 0.00 0.00 0.00 25
20260510030003 18 360 3.2 8.0 0.00 0.00 0.00 24
20260510025403 18 360 3.2 6.4 0.00 0.00 0.00 23
20260510024503 19 360 4.8 9.7 0.00 0.00 0.00 23
20260510023603 20 360 4.8 9.7 0.00 0.00 0.00 22
20260510022703 20 360 6.4 11.3 0.00 0.00 0.00 22
20260510021803 20 360 4.8 9.7 0.00 0.00 0.00 22
20260510020903 21 360 4.8 11.3 0.00 0.00 0.00 23
20260510020003 21 355 6.4 16.1 0.00 0.00 0.00 22
20260510015614 22 357 6.4 16.1 0.00 0.00 0.00 22
20260510014503 22 2 6.4 14.5 0.00 0.00 0.00 22
20260510013812 23 10 8.0 19.3 0.00 0.00 0.00 22
20260510012703 23 62 3.2 9.7 0.00 0.00 0.00 22
20260510011803 23 71 4.8 14.5 0.00 0.00 0.00 22
20260510011112 23 18 6.4 12.9 0.00 0.00 0.00 22
20260510010004 23 20 8.0 16.1 0.00 0.00 0.00 23
20260510005403 23 71 6.4 12.9 0.00 0.00 0.00 22
20260510004503 23 9 8.0 20.9 0.00 0.00 0.00 23
20260510003603 23 14 9.7 20.9 0.00 0.00 0.00 22
20260510002703 24 87 8.0 19.3 0.00 0.00 0.00 20
20260510002013 23 43 11.3 24.1 0.00 0.00 0.00 22
20260510000903 23 1 12.9 22.5 0.00 0.00 0.00 22
20260510000213 23 353 14.5 24.1 0.00 0.00 0.00 22
20260509235403 24 348 16.1 25.7 0.00 0.00 0.00 23
20260509234503 24 360 12.9 32.2 0.00 0.00 0.00 22
20260509233814 25 336 14.5 27.4 0.00 0.00 0.00 22
20260509232703 25 11 11.3 25.7 0.00 0.00 0.00 25
20260509232013 25 12 12.9 25.7 0.00 0.00 0.00 21
20260509230903 25 327 11.3 17.7 0.00 0.00 0.00 22
20260509230213 25 336 9.7 17.7 0.00 0.00 0.00 24
20260509225403 25 357 8.0 16.1 0.00 0.00 0.00 23
20260509224712 25 8 6.4 17.7 0.00 0.00 0.00 21
20260509223603 25 22 8.0 17.7 0.00 0.00 0.00 23
20260509222703 25 336 9.7 22.5 0.00 0.00 0.00 22
20260509222014 25 336 8.0 22.5 0.00 0.00 0.00 23
20260509220903 25 326 9.7 20.9 0.00 0.00 0.00 22
20260509220004 25 339 9.7 24.1 0.00 0.00 0.00 23
20260509215403 25 355 6.4 19.3 0.00 0.00 0.00 26
20260509214504 25 332 12.9 22.5 0.00 0.00 0.00 22
20260509213813 25 340 17.7 27.4 0.00 0.00 0.00 25
20260509212703 25 327 9.7 29.0 0.00 0.00 0.00 24
20260509211803 25 13 8.0 20.9 0.00 0.00 0.00 23
20260509210903 25 322 9.7 19.3 0.00 0.00 0.00 26
20260509210212 25 323 9.7 19.3 0.00 0.00 0.00 26
20260509205614 25 334 9.7 22.5 0.00 0.00 0.00 23
20260509204713 25 357 8.0 20.9 0.00 0.00 0.00 26
20260509203603 25 348 11.3 25.7 0.00 0.00 0.00 24
20260509202703 25 354 14.5 22.5 0.00 0.00 0.00 23
20260509201803 25 352 12.9 22.5 0.00 0.00 0.00 26
20260509201113 25 10 6.4 14.5 0.00 0.00 0.00 26
20260509200214 24 2 8.0 17.7 0.00 0.00 0.00 25
20260509195403 24 360 6.4 14.5 0.00 0.00 0.00 28
20260509194503 24 360 9.7 24.1 0.00 0.00 0.00 28
20260509193603 24 360 9.7 22.5 0.00 0.00 0.00 27
20260509192703 24 360 9.7 17.7 0.00 0.00 0.00 29
20260509192013 24 360 9.7 17.7 0.00 0.00 0.00 26
20260509190903 23 360 11.3 19.3 0.00 0.00 0.00 28
20260509190214 24 360 14.5 22.5 0.00 0.00 0.00 29
20260509185613 24 360 14.5 22.5 0.00 0.00 0.00 28
20260509184503 23 360 12.9 22.5 0.00 0.00 0.00 27
20260509183814 23 360 12.9 25.7 0.00 0.00 0.00 28
20260509182703 23 360 9.7 19.3 0.00 0.00 0.00 28
20260509181803 23 360 12.9 29.0 0.00 0.00 0.00 29
20260509180903 22 360 11.3 22.5 0.00 0.00 0.00 30
20260509180213 22 360 9.7 22.5 0.00 0.00 0.00 30
20260509175403 22 360 9.7 17.7 0.00 0.00 0.00 29
20260509174503 22 360 11.3 22.5 0.00 0.00 0.00 29
20260509173603 22 360 6.4 16.1 0.00 0.00 0.00 32
20260509172913 21 360 4.8 14.5 0.00 0.00 0.00 29
20260509171803 21 360 9.7 29.0 0.00 0.00 0.00 31
20260509170903 21 360 11.3 20.9 0.00 0.00 0.00 30
20260509170003 21 360 8.0 20.9 0.00 0.00 0.00 32
20260509165403 21 360 8.0 19.3 0.00 0.00 0.00 31
20260509164503 21 360 9.7 19.3 0.00 0.00 0.00 32
20260509163603 20 360 8.0 17.7 0.00 0.00 0.00 34
20260509162703 20 360 8.0 14.5 0.00 0.00 0.00 31
20260509161803 20 357 4.8 14.5 0.00 0.00 0.00 30
20260509160903 20 360 1.6 11.3 0.00 0.00 0.00 30
20260509160003 19 360 1.6 6.4 0.00 0.00 0.00 29
20260509155612 18 360 1.6 6.4 0.00 0.00 0.00 31
20260509154503 18 360 1.6 4.8 0.00 0.00 0.00 31
20260509153604 17 360 3.2 6.4 0.00 0.00 0.00 31
20260509152703 17 360 1.6 8.0 0.00 0.00 0.00 31
20260509151803 17 360 1.6 6.4 0.00 0.00 0.00 31
20260509150903 16 360 0.0 3.2 0.00 0.00 0.00 34
20260509150004 15 360 0.0 1.6 0.00 0.00 0.00 36
20260509145403 15 360 0.0 4.8 0.00 0.00 0.00 39
20260509144713 14 360 3.2 6.4 0.00 0.00 0.00 41
20260509143603 13 360 6.4 11.3 0.00 0.00 0.00 43
20260509142914 13 360 4.8 9.7 0.00 0.00 0.00 46
20260509141803 12 360 1.6 4.8 0.00 0.00 0.00 44
20260509141112 11 360 3.2 4.8 0.00 0.00 0.00 44
20260509140004 9 360 3.2 8.0 0.00 0.00 0.00 48
20260509135403 8 360 0.0 4.8 0.00 0.00 0.00 48
20260509134713 7 0 0.0 0.0 0.00 0.00 0.00 48
20260509133814 7 0 0.0 0.0 0.00 0.00 0.00 51
20260509132703 6 0 0.0 0.0 0.00 0.00 0.00 53
20260509131803 6 0 0.0 0.0 0.00 0.00 0.00 56